Terug naar catalogus

ICEYE-X79

ActiefWetenschapSSO
NORAD 69870·PAYLOAD·🇨🇦 Canada

Gelanceerd Jul 7, 2026 vanaf Vandenberg Space Force Base

Loading…

Volgende Passages (komende 24 uur)

TLE

VersSource: Space-Track

Epoch: Sep 14, 2026, 23:13 UTC

1 69870U 26156B   26257.96793194  .00001979  00000-0  20129-3 0  9993
2 69870  97.7437 157.2345 0005224 283.0015  77.0620 14.91876244 10388

Volg ICEYE-X79 in realtime met AllMySat

Download on the App Store